<?xml version="1.0" encoding="UTF-8" standalone="no" ?>
<gpx xmlns="http://www.topografix.com/GPX/1/1" xmlns:xsi="http://www.w3.org/2001/XMLSchema-instance" xsi:schemaLocation="http://www.topografix.com/GPX/1/1 http://www.topografix.com/GPX/1/1/gpx.xsd" version="1.1" creator="VisuGPX - https://www.visugpx.com">
  <metadata>
    <name>112011</name>
    <desc><![CDATA[très agréable sortie 24.5]]></desc>
  </metadata>
  <trk>
    <name><![CDATA[ACTIVE LOG083851]]></name>
    <trkseg>
      <trkpt lat="48.38261" lon="-4.50635">
        <ele>56.794</ele>
        <time>2011-04-07T06:38:51Z</time>
      </trkpt>
      <trkpt lat="48.38261" lon="-4.50635">
        <ele>63.36</ele>
        <time>2011-04-07T06:39:57Z</time>
      </trkpt>
      <trkpt lat="48.38261" lon="-4.50635">
        <ele>56.02</ele>
        <time>2011-04-07T06:39:58Z</time>
      </trkpt>
      <trkpt lat="48.38261" lon="-4.50635">
        <ele>57.568</ele>
        <time>2011-04-07T06:39:59Z</time>
      </trkpt>
      <trkpt lat="48.38261" lon="-4.50635">
        <ele>54.035</ele>
        <time>2011-04-07T06:40:01Z</time>
      </trkpt>
      <trkpt lat="48.38261" lon="-4.50635">
        <ele>55.724</ele>
        <time>2011-04-07T06:40:02Z</time>
      </trkpt>
      <trkpt lat="48.38261" lon="-4.50635">
        <ele>57.034</ele>
        <time>2011-04-07T06:40:03Z</time>
      </trkpt>
      <trkpt lat="48.38261" lon="-4.50635">
        <ele>53.726</ele>
        <time>2011-04-07T06:40:48Z</time>
      </trkpt>
      <trkpt lat="48.38261" lon="-4.50635">
        <ele>52.035</ele>
        <time>2011-04-07T06:41:22Z</time>
      </trkpt>
      <trkpt lat="48.38261" lon="-4.50635">
        <ele>54.212</ele>
        <time>2011-04-07T06:41:39Z</time>
      </trkpt>
      <trkpt lat="48.38261" lon="-4.50635">
        <ele>52.852</ele>
        <time>2011-04-07T06:41:40Z</time>
      </trkpt>
      <trkpt lat="48.38261" lon="-4.50635">
        <ele>54.059</ele>
        <time>2011-04-07T06:41:49Z</time>
      </trkpt>
      <trkpt lat="48.38261" lon="-4.50635">
        <ele>54.067</ele>
        <time>2011-04-07T06:41:53Z</time>
      </trkpt>
      <trkpt lat="48.38261" lon="-4.50635">
        <ele>54.569</ele>
        <time>2011-04-07T06:42:02Z</time>
      </trkpt>
      <trkpt lat="48.38261" lon="-4.50635">
        <ele>61.542</ele>
        <time>2011-04-07T06:42:10Z</time>
      </trkpt>
      <trkpt lat="48.38261" lon="-4.50635">
        <ele>53.425</ele>
        <time>2011-04-07T06:42:11Z</time>
      </trkpt>
      <trkpt lat="48.38261" lon="-4.50635">
        <ele>52.727</ele>
        <time>2011-04-07T06:42:13Z</time>
      </trkpt>
      <trkpt lat="48.38261" lon="-4.50635">
        <ele>49.48</ele>
        <time>2011-04-07T06:45:00Z</time>
      </trkpt>
    </trkseg>
  </trk>
</gpx>